Weather in Malyy Barkhanchak

Russia / Stavropol Krai     45°35′14″N   43°04′28″E
temp.,
°C
wind,
m/s
gust,
m/s
humid.,
%
clouds,
%
prec.,
mm/h
press.,
hPa
HPBL,
m
18 april, sun
sun1800:00+8w1393100 1.3 1022136
03:00+8ne2291100 1.3 102165
06:00+9e3697100 1.6 1020272
09:00+9ese3795100 3.3 1019370
12:00+13se4580100 0.1 1017789
15:00+15se237457 0.2 1017655
18:00+14ese348199 0.1 101670
21:00+12se3594100 1.6 1017156
19 april, mon
mon1900:00+12se3693100 0.2 1016135
03:00+12w2294100 0.2 101630
06:00+11wnw2397100 0.6 1016105
09:00+13w2290100 1.4 1017390
12:00+15nw1285100 2.8 1016352
15:00+16se2383100 3.1 1014278
18:00+14ese3397100 4.2 101476
21:00+14se2796100 6.4 1014266
20 april, tue
tue2000:00+13ne339588 0.3 101353
03:00+12ese51291100 0.3 1011285
06:00+12se81878100 0.0 1009412
09:00+15se101970100 0.1 1007602
12:00+19se101862100 0.0 1004735
15:00+21sse91461100 0.1 1005644
18:00+17w4786100 1.4 1008322
21:00+15w4990100 1.5 1010402
21 april, wed
wed2100:00+13wnw4982100 0.4 1013396
03:00+12w3978100 0.6 1014554
06:00+9wnw51390100 0.4 1017889
09:00+10w5107999 0.8 10191041
12:00+12w3771100 0.0 10201005
15:00+13sw1274100 0.0 1020215
18:00+12se2380100 0.0 1021128
21:00+10sse3689100 0.0 1023150
22 april, thu
thu2200:00+10sse249497 0.4 1023162
03:00+10sse2395100 1.8 1023101
06:00+10ene1193100 0.4 102319
09:00+10ene2492100 0.7 1024216
12:00+10se2291100 0.5 1024191
15:00+11sse3483100 1.3 1024216
18:00+12wsw227895 0.0 1024125
21:00+9wsw2287100 0.0 102416